[[{"header":{"parameterUnit":"m.s-1","parameterCategory":1,"la1":30.2991,"la2":30.254,"lo1":-89.0895,"lo2":-89.0444,"dy":0.0017,"dx":0.0017,"nx":28,"ny":28,"refTime":"2025-04-28T03:00:00:Z","depth":0,"parameterNumber":2,"parameterNumberName":"U-component_of_WINDS"},"data":[0,0,0,0,0,0,0,0,0,0,0,0,0,0,0,0,0,0,0,0,0,0,0,0,0,0,0,0,0,0,0,0,0,0,0,0,0,0,0,0,0,0,0,0,0,0,0,0,0,0,0,0,0,0,0,0,0,0,-1.5699,-1.5698,0,-1.5666,-1.5665,-1.5665,-1.5609,-1.5608,-1.5607,-1.5606,-1.5572,-1.5572,-1.5572,0,0,0,0,0,0,0,0,0,0,0,0,0,-1.5714,-1.5714,-1.5699,-1.5698,-1.5698,-1.5666,-1.5665,-1.5665,-1.5609,-1.5608,-1.5606,-1.5605,-1.5572,-1.5572,-1.5572,0,0,0,0,0,0,0,0,0,0,0,0,0,-1.5697,-1.5714,-1.5699,-1.5666,-1.5663,-1.5666,-1.5665,-1.5665,-1.5609,-1.5608,-1.5606,-1.5605,-1.5572,-1.5572,-1.5572,-1.5605,0,0,-1.5573,-1.5573,0,0,0,0,0,0,0,0,-1.5698,-1.5696,-1.5671,-1.5668,-1.5665,-1.564,-1.5658,-1.5645,-1.561,-1.563,-1.5606,-1.5604,-1.5596,-1.5594,-1.5591,-1.5603,-1.5602,-1.5573,-1.5573,-1.5573,-1.5573,0,0,0,0,0,0,0,-1.5699,-1.5697,-1.5686,-1.5671,-1.5667,-1.5653,-1.5649,-1.5655,-1.5622,-1.5628,-1.5624,-1.562,-1.5594,-1.5591,-1.559,-1.5601,-1.5573,-1.5573,-1.5573,-1.5573,-1.5639,-1.564,0,0,0,0,0,0,-1.5705,-1.5699,-1.5687,-1.5685,-1.5678,-1.5654,-1.565,-1.5649,-1.5622,-1.5616,-1.5622,-1.5618,-1.5592,-1.559,-1.5589,-1.5625,-1.5573,-1.5573,-1.5573,-1.5637,-1.5639,-1.5641,0,0,0,0,0,0,-1.5705,-1.5704,-1.5688,-1.569,-1.5687,-1.5656,-1.5656,-1.5649,-1.5647,-1.5617,-1.5611,-1.5625,-1.5591,-1.5589,-1.5601,-1.5623,-1.5573,-1.5573,-1.5635,-1.5638,-1.564,-1.5697,0,0,0,0,0,0,-1.5706,-1.5705,-1.5717,-1.5691,-1.5687,-1.5701,-1.5657,-1.565,-1.5647,-1.5642,-1.5619,-1.5614,-1.5589,-1.5601,-1.5601,-1.5622,-1.5573,-1.5633,-1.5636,-1.5639,-1.5693,-1.5701,-1.5708,0,0,0,0,0,-1.5707,-1.5734,-1.5717,-1.5716,-1.5701,-1.5702,-1.57,-1.5671,-1.5649,-1.5661,-1.5642,-1.5614,-1.5621,-1.5603,-1.5603,-1.5624,-1.5631,-1.5635,-1.5639,-1.569,-1.57,-1.5708,0,0,0,0,0,0,-1.5763,-1.573,-1.5711,-1.5731,-1.572,-1.5693,-1.5706,-1.5683,-1.5678,-1.5673,-1.5637,-1.5633,-1.565,-1.5638,-1.5619,-1.5654,-1.5622,-1.5626,-1.5661,-1.567,-1.5677,-1.5679,-1.5573,0,0,0,0,0,-1.5777,-1.5781,-1.5752,-1.5772,-1.5768,-1.5738,-1.5738,-1.5716,-1.5703,-1.5698,-1.568,-1.5669,-1.5668,-1.5669,-1.5666,-1.5692,-1.5686,-1.5706,-1.5714,-1.572,-1.5723,-1.5736,-1.5745,-1.5653,-1.5653,-1.5653,0,0,-1.5807,-1.579,-1.5794,-1.5783,-1.5772,-1.5776,-1.5735,-1.5741,-1.5744,-1.5699,-1.571,-1.5697,-1.5682,-1.5701,-1.5709,-1.5692,-1.5748,-1.5725,-1.573,-1.573,-1.5741,-1.575,-1.5757,-1.5656,-1.5655,-1.5655,0,0,-1.5864,-1.5852,-1.5867,-1.5857,-1.5841,-1.5821,-1.5825,-1.5802,-1.5791,-1.5802,-1.5769,-1.5772,-1.5772,-1.5762,-1.5758,-1.5813,-1.5787,-1.5813,-1.5852,-1.5865,-1.5872,-1.5878,-1.5898,-1.5905,-1.5817,-1.5817,-1.5817,0,-1.5904,-1.5909,-1.5878,-1.5887,-1.5883,-1.5843,-1.5859,-1.5851,-1.5835,-1.5833,-1.5814,-1.5814,-1.5801,-1.5817,-1.5831,-1.5829,-1.5832,-1.5815,-1.5873,-1.5879,-1.5885,-1.5903,-1.591,-1.582,-1.582,-1.5819,-1.5819,0,-1.5958,-1.5962,-1.5977,-1.5962,-1.596,-1.5972,-1.5944,-1.5946,-1.5925,-1.5908,-1.5919,-1.5903,-1.5897,-1.5899,-1.5879,-1.5913,-1.5903,-1.588,-1.5847,-1.5897,-1.5914,-1.592,-1.5825,-1.5824,-1.5823,-1.5822,0,0,-1.6048,-1.6017,-1.6023,-1.6016,-1.5996,-1.5999,-1.6009,-1.6003,-1.6006,-1.5996,-1.6004,-1.6006,-1.5984,-1.5979,-1.5958,-1.5969,-1.6014,-1.5944,-1.5943,-1.5957,-1.605,-1.6067,-1.6076,-1.5997,-1.5998,-1.5999,-1.6051,0,-1.61,-1.6116,-1.6089,-1.6112,-1.6115,-1.6078,-1.6088,-1.6077,-1.6061,-1.6062,-1.6045,-1.6046,-1.6018,-1.6014,-1.6024,-1.6006,-1.6032,-1.6002,-1.6004,-1.6004,-1.6008,-1.6084,-1.6103,-1.6152,-1.6057,-1.6058,-1.6059,0,-1.6163,-1.6157,-1.618,-1.6158,-1.6159,-1.6168,-1.616,-1.6162,-1.6149,-1.6137,-1.6132,-1.6107,-1.6116,-1.6085,-1.6098,-1.6078,-1.6078,-1.6069,-1.607,-1.6069,-1.6034,-1.6084,-1.6168,-1.6175,-1.6069,-1.6068,-1.6068,0,-1.6226,-1.6224,-1.6237,-1.6232,-1.6208,-1.6215,-1.6205,-1.6191,-1.6189,-1.6183,-1.6182,-1.6177,-1.6174,-1.6172,-1.6146,-1.6126,-1.6162,-1.6129,-1.6152,-1.6153,-1.616,-1.616,-1.6244,-1.6162,-1.6161,-1.6161,-1.6161,0,-1.6287,-1.6302,-1.6265,-1.6273,-1.6289,-1.6259,-1.6276,-1.6262,-1.625,-1.6255,-1.6223,-1.6229,-1.6196,-1.6198,-1.6178,-1.6192,-1.6191,-1.6181,-1.6176,-1.6184,-1.6185,-1.6182,-1.6178,-1.6163,-1.6163,-1.6162,-1.6162,0,-1.6359,-1.6335,-1.6347,-1.6323,-1.6318,-1.6331,-1.6311,-1.6317,-1.63,-1.6307,-1.6307,-1.628,-1.6281,-1.6256,-1.6252,-1.6239,-1.6261,-1.6249,-1.6265,-1.6261,-1.6286,-1.6284,-1.6371,-1.638,-1.6292,-1.6293,-1.6294,0,-1.6399,-1.641,-1.6388,-1.6389,-1.6381,-1.6383,-1.6381,-1.6352,-1.6352,-1.6338,-1.6347,-1.6345,-1.6342,-1.6346,-1.6326,-1.6323,-1.6311,-1.6341,-1.631,-1.6318,-1.6311,-1.631,-1.6311,-1.6348,-1.6349,-1.635,-1.635,0,-1.6473,-1.6461,-1.6459,-1.6454,-1.6453,-1.6447,-1.644,-1.6443,-1.6411,-1.6412,-1.6413,-1.641,-1.6407,-1.6405,-1.6399,-1.6389,-1.6365,-1.6361,-1.6366,-1.6374,-1.6382,-1.6378,-1.6283,-1.6359,-1.6358,-1.6357,-1.6357,-1.6356,-1.653,-1.6538,-1.6524,-1.6523,-1.6515,-1.6509,-1.6514,-1.6498,-1.6497,-1.6492,-1.6475,-1.6479,-1.6466,-1.6454,-1.6447,-1.6449,-1.6434,-1.6442,-1.6444,-1.6446,-1.645,-1.6383,-1.6448,-1.6448,-1.6448,-1.6447,-1.6447,0,-1.6602,-1.6591,-1.6591,-1.6581,-1.6581,-1.6559,-1.6549,-1.6551,-1.6554,-1.6545,-1.6542,-1.6543,-1.6542,-1.6523,-1.652,-1.6526,-1.6514,-1.6526,-1.6525,-1.6523,-1.6464,-1.646,-1.6535,-1.6535,-1.6535,-1.6535,-1.6535,-1.6535,-1.6639,-1.6651,-1.6637,-1.6646,-1.6634,-1.6638,-1.6634,-1.6629,-1.6621,-1.6623,-1.6622,-1.6609,-1.6596,-1.6592,-1.659,-1.6584,-1.6584,-1.6599,-1.659,-1.6535,-1.6527,-1.6519,-1.6514,-1.66,-1.66,-1.6648,-1.6649,-1.6649]},{"header":{"parameterUnit":"m.s-1","parameterCategory":1,"la1":30.2991,"la2":30.254,"lo1":-89.0895,"lo2":-89.0444,"dy":0.0017,"dx":0.0017,"nx":28,"ny":28,"refTime":"2025-04-28T03:00:00:Z","depth":0,"parameterNumber":3,"parameterNumberName":"V-component_of_WINDS"},"data":[0,0,0,0,0,0,0,0,0,0,0,0,0,0,0,0,0,0,0,0,0,0,0,0,0,0,0,0,0,0,0,0,0,0,0,0,0,0,0,0,0,0,0,0,0,0,0,0,0,0,0,0,0,0,0,0,0,0,4.4071,4.4071,0,4.4073,4.4073,4.4073,4.403,4.4028,4.4027,4.4026,4.4027,4.4028,4.4029,0,0,0,0,0,0,0,0,0,0,0,0,0,4.4031,4.4032,4.4071,4.4071,4.4071,4.4073,4.4073,4.4073,4.403,4.4028,4.4027,4.4026,4.4027,4.4028,4.4029,0,0,0,0,0,0,0,0,0,0,0,0,0,4.4042,4.4032,4.4071,4.405,4.4048,4.4073,4.4073,4.4073,4.403,4.4028,4.4027,4.4025,4.4026,4.4028,4.4029,4.4074,0,0,4.4034,4.4035,0,0,0,0,0,0,0,0,4.4041,4.4044,4.4053,4.4052,4.405,4.4049,4.4059,4.4073,4.4031,4.4037,4.4026,4.4024,4.4036,4.4037,4.4041,4.4074,4.4074,4.4035,4.4036,4.4036,4.4037,0,0,0,0,0,0,0,4.4041,4.4043,4.4072,4.4053,4.4051,4.404,4.404,4.4061,4.4046,4.4036,4.4033,4.4034,4.4034,4.4039,4.404,4.4074,4.4035,4.4036,4.4037,4.4038,4.4145,4.4147,0,0,0,0,0,0,4.4043,4.4043,4.4072,4.4072,4.4041,4.4043,4.4042,4.4051,4.4046,4.4043,4.4035,4.4032,4.4037,4.4038,4.404,4.4092,4.4036,4.4038,4.4039,4.4143,4.4146,4.4148,0,0,0,0,0,0,4.4042,4.4046,4.4072,4.4057,4.4059,4.4045,4.4056,4.4052,4.4057,4.4045,4.4042,4.4043,4.4036,4.4038,4.4066,4.4092,4.4039,4.404,4.4141,4.4144,4.4147,4.4197,0,0,0,0,0,0,4.4041,4.4046,4.4063,4.4057,4.406,4.4098,4.4057,4.4053,4.406,4.4055,4.4051,4.4049,4.4035,4.4064,4.4068,4.4093,4.4041,4.4139,4.4142,4.4146,4.4193,4.4201,4.4208,0,0,0,0,0,4.404,4.4077,4.4064,4.4068,4.4081,4.41,4.4101,4.4084,4.4062,4.4079,4.4071,4.4049,4.4089,4.4067,4.4071,4.4097,4.4137,4.4141,4.4146,4.419,4.42,4.4208,0,0,0,0,0,0,4.4085,4.4076,4.4061,4.4097,4.41,4.4092,4.4113,4.4095,4.4103,4.4099,4.4077,4.4076,4.4108,4.4106,4.4082,4.4141,4.4109,4.4114,4.4141,4.415,4.4158,4.4157,4.4043,0,0,0,0,0,4.4099,4.4115,4.4106,4.4139,4.4141,4.4127,4.4134,4.4121,4.4123,4.4123,4.4118,4.412,4.4133,4.4141,4.4153,4.4193,4.4191,4.4213,4.422,4.4226,4.4231,4.4252,4.4262,4.4161,4.4161,4.4161,0,0,4.4129,4.4125,4.4137,4.4148,4.4148,4.4165,4.4128,4.4148,4.416,4.4126,4.4152,4.4149,4.415,4.4184,4.4199,4.4183,4.4259,4.4232,4.4237,4.4238,4.4257,4.4267,4.4275,4.4164,4.4164,4.4163,0,0,4.4191,4.419,4.4217,4.4219,4.422,4.421,4.4217,4.4213,4.4209,4.4235,4.421,4.4225,4.4247,4.4249,4.4253,4.4317,4.4297,4.4321,4.4361,4.4381,4.4389,4.4396,4.4419,4.4427,4.4326,4.4326,4.4326,0,4.4227,4.4252,4.4234,4.4255,4.4261,4.4231,4.4259,4.4261,4.4266,4.427,4.4252,4.428,4.4278,4.4313,4.4329,4.4333,4.434,4.4321,4.439,4.4396,4.4403,4.4424,4.4433,4.4329,4.4329,4.4328,4.4328,0,4.4296,4.4314,4.4336,4.4342,4.435,4.4374,4.436,4.437,4.4357,4.4349,4.4377,4.4374,4.4384,4.4392,4.4378,4.4424,4.4414,4.4394,4.4361,4.4415,4.4435,4.4443,4.4333,4.4332,4.4331,4.4331,0,0,4.4385,4.4382,4.439,4.4392,4.4392,4.4405,4.4429,4.4439,4.4448,4.4453,4.4472,4.4492,4.4473,4.4477,4.4464,4.4482,4.4533,4.4459,4.4459,4.4473,4.4584,4.4599,4.4609,4.452,4.4522,4.4523,4.4584,0,4.4446,4.4485,4.447,4.4511,4.4527,4.45,4.452,4.4522,4.4516,4.4529,4.4522,4.4537,4.4511,4.4513,4.453,4.4523,4.4555,4.4519,4.4537,4.4538,4.4537,4.4619,4.4635,4.4693,4.4591,4.4593,4.4594,0,4.4521,4.4529,4.4571,4.4569,4.4575,4.4593,4.4602,4.4615,4.4616,4.4611,4.4616,4.4599,4.4622,4.459,4.4621,4.4597,4.4604,4.4602,4.4603,4.4604,4.4569,4.4622,4.4711,4.4719,4.4606,4.4605,4.4604,0,4.4581,4.4603,4.4631,4.4634,4.4632,4.4646,4.4645,4.4645,4.4653,4.466,4.4665,4.4675,4.468,4.4688,4.4674,4.4653,4.4707,4.4674,4.4703,4.4703,4.4715,4.4714,4.4806,4.472,4.472,4.472,4.472,0,4.465,4.4677,4.4659,4.4676,4.4706,4.4688,4.4718,4.4714,4.4715,4.4731,4.4708,4.4724,4.4705,4.4719,4.4708,4.4735,4.4738,4.4734,4.473,4.4735,4.4736,4.4739,4.4734,4.4722,4.4722,4.4721,4.4721,0,4.4722,4.4711,4.474,4.4736,4.4735,4.4757,4.4753,4.4769,4.4762,4.4783,4.4787,4.4775,4.4791,4.4778,4.4792,4.4785,4.4821,4.4812,4.482,4.4818,4.4847,4.4844,4.4943,4.4955,4.4863,4.4863,4.4864,0,4.4766,4.4786,4.4785,4.4794,4.4795,4.4811,4.4818,4.4802,4.4811,4.4815,4.483,4.4844,4.4853,4.4879,4.4872,4.4883,4.4874,4.4908,4.4875,4.488,4.4874,4.4873,4.4875,4.4914,4.4915,4.4916,4.4917,0,4.4845,4.4839,4.4851,4.4862,4.4872,4.4879,4.4885,4.4894,4.4877,4.4888,4.4904,4.4911,4.4927,4.494,4.4949,4.4948,4.493,4.4928,4.4935,4.494,4.4943,4.4941,4.4838,4.4925,4.4924,4.4924,4.4923,4.4923,4.4905,4.4921,4.4923,4.4937,4.494,4.4946,4.4961,4.4956,4.4969,4.498,4.497,4.4988,4.499,4.5,4.5002,4.5016,4.5002,4.5012,4.5015,4.5017,4.5021,4.4942,4.5018,4.5017,4.5017,4.5017,4.5017,0,4.4982,4.4982,4.4996,4.5005,4.5016,4.4999,4.5004,4.5015,4.5032,4.5035,4.5045,4.5063,4.5076,4.5071,4.5082,4.5095,4.5087,4.5098,4.5097,4.5097,4.5033,4.5026,4.5105,4.5105,4.5105,4.5105,4.5105,4.5105,4.5024,4.5052,4.5046,4.5075,4.5074,4.5093,4.5098,4.5103,4.5105,4.5127,4.5138,4.5134,4.5134,4.5145,4.5157,4.5155,4.516,4.5174,4.5169,4.511,4.5101,4.5093,4.5086,4.5176,4.5176,4.5231,4.5232,4.5232]}]]